Weather in Berezayka

Russia / Tver Oblast     57°59′16″N   33°54′09″E
temp.,
°C
wind,
m/s
gust,
m/s
humid.,
%
clouds,
%
prec.,
mm/h
press.,
hPa
HPBL,
m
12 may, wed
wed1200:00+10se27840 0.0 1026133
03:00+8sse26870 0.0 1026109
06:00+10sse24840 0.0 1026103
09:00+17se34644 0.0 1026447
12:00+22sse35440 0.0 10251474
15:00+24ese35384 0.0 10232532
18:00+22e46492 0.0 10211362
21:00+16ene3117960 0.0 1020292
13 may, thu
thu1300:00+14ese311918 0.9 1019461
03:00+13ese4109396 0.9 1019695
06:00+12se499324 0.1 1019728
09:00+14se46635 0.1 1019858
12:00+18se46402 0.0 10171606
15:00+20se473815 0.0 10152081
18:00+16ese2560100 0.0 1013150
21:00+13ssw4880100 0.3 1012421
14 may, fri
fri1400:00+9s27952 1.3 1013300
03:00+7se389817 1.3 1013240
06:00+7sse399618 0.0 1014318
09:00+12s467399 0.0 1014757
12:00+17s464998 0.0 10141581
15:00+17sse4650100 0.0 10131779
18:00+17se376094 0.0 1012784
21:00+12ese37877 0.0 1011130
15 may, sat
sat1500:00+11ese289698 0.1 1009157
03:00+11se289927 1.1 1008177
06:00+12se279728 0.0 1008216
09:00+17s357878 0.0 1008488
12:00+22ssw24505 0.0 10071509
15:00+22se345399 0.1 1006969
18:00+16ssw3685100 3.3 1005172
21:00+15sse2288100 4.2 100521
16 may, sun
sun1600:00+13s2293100 0.3 100524
03:00+12ssw2296100 0.3 100543
06:00+12sw2497100 0.9 1006192
09:00+13sw2696100 1.8 1007329
12:00+15sw3690100 0.7 1009370
15:00+17sw467999 4.2 1009920
18:00+15wsw4790100 4.6 1010547
21:00+13sw279863 6.0 1012237